Theta_e
327 324 316 315 302 298 294 299 302 304 307 310 314 314 314 317 314 304 330 336 337 337 340 342 345 348 348 347 346 347 346 347 345 344 342 342 340 339 337 335 337 336 336 335 334 334 333 332 332
324 323 315 308 298 291 292 298 301 305 313 314 318 318 317 315 324 324 328 337 338 338 339 340 343 347 347 347 347 347 347 347 345 342 342 341 339 339 337 336 336 335 335 335 334 333 332 330 329
319 320 307 303 297 292 293 298 300 309 313 312 314 320 319 319 324 326 332 337 336 336 338 339 342 346 346 347 347 346 347 346 345 341 341 340 339 338 336 335 335 335 334 334 333 333 333 332 330
312 309 305 298 297 298 298 302 304 309 312 313 315 315 321 328 327 330 336 336 333 334 339 340 343 345 345 346 346 345 346 345 345 341 340 339 338 337 337 335 334 334 334 335 333 332 331 329 328
310 304 296 294 296 299 302 305 305 309 310 311 316 314 317 327 331 333 334 334 330 332 339 340 343 345 346 346 346 346 346 344 343 342 340 338 337 337 335 334 333 332 332 331 331 329 328 327 325
304 302 293 291 296 300 302 304 303 309 311 311 316 317 319 329 327 331 333 331 331 335 339 341 337 340 343 345 345 345 345 343 343 342 342 338 338 336 335 334 333 332 331 330 329 327 326 325 324
301 299 295 294 296 299 302 305 304 306 306 309 320 314 317 325 329 328 331 331 333 337 338 338 338 338 336 339 339 341 341 341 341 341 340 339 338 337 336 334 332 330 330 328 326 326 325 324 324
305 301 296 296 297 298 304 304 306 306 307 318 323 315 315 325 329 326 329 332 333 336 337 337 335 337 337 337 333 334 336 337 337 336 335 334 333 333 333 331 332 330 329 327 325 324 323 323 324
308 297 295 298 299 301 304 303 306 309 308 318 322 321 323 330 327 324 327 328 330 334 335 336 334 335 335 334 331 330 331 332 332 330 328 327 327 328 327 327 331 332 330 328 326 325 325 326 326
300 296 298 303 303 303 305 303 305 304 306 313 317 324 328 328 325 322 324 324 326 329 332 334 334 333 333 334 329 329 330 329 330 328 326 325 324 323 325 322 327 330 329 330 328 328 328 324 319
301 297 302 304 306 306 306 303 306 304 301 310 316 320 325 325 324 323 323 325 325 328 330 332 333 333 331 330 327 326 325 325 324 325 323 323 322 320 320 320 322 322 320 320 323 321 321 320 319
290 298 302 306 307 306 304 306 305 303 305 310 316 324 324 324 323 323 322 324 325 326 328 330 331 331 329 327 326 325 325 323 321 322 322 320 318 318 318 318 319 318 319 317 316 317 318 318 320
292 292 295 298 301 303 306 303 304 304 308 311 323 324 323 323 325 323 324 322 324 325 327 328 329 329 329 326 326 325 324 323 323 322 322 320 319 317 318 318 317 317 317 317 316 316 317 317 318
292 291 292 298 299 300 301 303 303 304 307 313 322 321 322 322 324 321 323 321 322 326 326 328 328 328 329 326 325 325 325 324 324 323 323 321 320 319 318 317 318 318 317 318 317 316 316 317 318
291 287 291 293 297 299 304 300 301 306 307 307 319 319 321 322 323 324 326 324 322 325 328 327 327 327 327 326 326 327 327 326 326 324 323 323 321 319 319 318 317 317 318 317 316 317 317 317 318
285 284 283 290 294 297 302 293 302 305 303 304 306 313 320 320 322 324 327 327 322 322 327 328 328 327 326 327 327 327 327 327 326 325 324 323 322 321 318 317 317 318 317 317 315 316 316 316 317
278 275 278 282 289 290 289 285 295 305 305 303 302 303 312 320 321 323 324 327 325 322 326 327 327 326 326 327 328 328 328 329 329 327 325 323 323 322 320 318 318 318 317 316 316 316 316 315 317
273 273 276 277 284 287 284 284 289 296 292 292 295 297 301 304 317 324 325 327 328 324 325 327 327 326 327 328 326 327 328 330 330 329 326 324 324 323 321 319 319 320 318 318 318 317 317 317 318
277 275 274 279 283 283 283 284 285 288 289 290 291 293 294 298 306 316 325 327 328 327 320 325 326 325 327 326 325 325 325 328 329 328 325 325 324 323 322 321 320 321 320 320 322 322 319 321 324
278 275 274 279 283 282 281 280 284 286 288 290 292 293 295 297 299 305 319 325 326 326 324 324 325 325 326 328 328 327 327 327 327 325 326 325 325 324 324 322 321 321 321 321 322 323 323 323 325
277 276 276 277 280 281 279 278 280 286 289 292 294 294 296 297 298 299 304 321 325 326 325 322 325 325 326 326 327 325 327 326 325 324 324 325 325 325 325 324 323 322 323 322 323 324 324 322 322
275 280 280 278 276 270 278 268 278 283 285 288 290 292 293 296 299 303 305 306 322 325 327 323 324 325 326 326 324 324 322 321 323 324 325 324 325 325 325 325 324 324 324 324 324 326 325 320 318
277 281 279 279 276 273 272 270 273 280 281 285 287 290 294 298 299 299 305 308 311 324 325 324 323 324 325 325 325 323 322 322 323 325 324 324 324 325 325 326 325 325 325 326 325 324 324 325 323
283 280 278 276 274 262 271 271 271 276 281 284 287 291 294 295 296 298 304 309 311 316 322 323 322 323 325 324 324 323 322 322 322 322 323 323 324 325 326 327 327 326 326 326 326 326 325 324 324
279 273 264 261 260 263 273 272 273 280 283 284 289 291 292 293 294 296 298 301 305 308 311 321 323 322 324 324 324 323 323 322 322 323 323 323 323 321 324 326 324 324 322 322 323 323 321 321 320
275 273 265 259 263 267 275 270 274 282 283 286 290 290 290 290 293 294 296 298 299 302 304 308 315 323 323 323 323 323 324 323 323 324 325 322 322 320 317 316 317 317 317 316 315 313 310 309 308
276 266 276 269 272 266 271 273 278 282 282 282 284 286 286 287 289 293 295 296 296 298 300 302 306 311 323 323 323 323 323 322 323 324 325 324 317 314 312 311 310 310 309 308 307 306 305 304 304
277 279 269 269 259 263 269 271 271 276 278 281 282 282 284 287 287 292 294 295 295 296 297 299 303 306 309 322 323 323 323 323 322 318 314 312 310 308 307 306 306 305 305 305 305 303 302 300 300
273 271 269 268 269 264 264 268 276 277 279 279 281 282 283 284 285 289 292 294 294 295 295 295 298 301 304 308 318 318 315 312 312 310 309 308 306 306 304 304 304 303 300 300 300 298 297 296 295
276 274 273 267 265 269 268 267 280 280 280 279 280 282 283 284 285 286 289 291 293 293 293 293 294 296 300 303 308 310 310 308 307 306 305 305 304 303 303 303 300 297 296 297 296 295 294 292 290
Wind_Speed
14 11 1 5 4 5 4 7 4 7 3 2 1 6 8 4 4 4 4 8 16 15 12 12 16 16 17 16 15 14 15 17 16 15 15 15 15 15 14 13 11 12 14 14 14 13 12 11 11
7 5 4 3 4 1 7 3 7 8 6 8 7 4 3 2 3 7 7 9 17 15 12 11 13 15 16 16 14 15 14 17 17 15 15 15 15 15 14 14 12 12 13 13 13 13 12 11 9
5 1 4 3 4 6 6 3 6 3 7 3 5 5 3 5 0 10 8 14 14 13 11 11 13 14 15 15 13 12 17 17 17 16 15 15 14 14 14 13 12 11 11 13 12 11 10 9 9
3 5 4 3 7 9 6 8 7 6 4 3 4 7 1 5 7 7 15 16 15 13 10 13 15 14 14 13 12 12 16 16 16 15 15 14 14 13 12 12 12 11 10 10 10 10 9 8 7
3 3 0 3 8 6 5 7 6 8 3 3 4 5 3 3 6 17 16 13 16 11 10 11 15 14 14 14 13 13 14 15 15 14 15 14 14 13 12 11 11 10 10 9 9 8 7 6 5
3 3 1 5 8 6 6 7 7 7 4 2 5 8 5 3 13 13 13 12 14 13 11 10 12 13 13 13 14 13 15 15 16 15 13 14 14 13 13 12 10 9 9 8 7 6 5 4 3
4 4 5 4 7 7 6 4 5 8 5 5 9 6 2 4 9 11 11 11 12 12 11 8 8 11 12 11 11 12 13 12 14 13 13 13 13 13 12 11 10 9 8 6 5 4 3 1 1
3 4 4 6 8 12 5 4 4 7 6 5 5 7 6 9 10 11 10 11 11 11 11 11 8 8 8 8 11 11 10 9 11 12 9 10 10 10 11 9 9 9 7 6 4 3 3 2 3
4 2 7 7 7 12 1 4 5 5 2 4 3 4 2 15 12 11 11 8 9 9 12 11 10 8 8 7 7 9 10 10 10 10 10 9 4 6 8 7 10 10 8 7 6 6 6 5 5
4 6 9 6 9 11 10 2 7 4 6 2 2 4 8 15 15 16 17 14 14 14 14 13 11 10 9 7 7 6 6 4 5 6 6 5 6 5 6 7 9 9 9 7 7 7 7 4 3
6 8 5 6 10 12 16 3 5 6 6 8 9 10 14 12 12 15 14 17 16 14 11 12 12 11 10 8 5 3 3 4 4 6 6 5 4 4 3 3 3 4 6 3 4 4 3 4 3
10 9 7 8 7 7 6 2 8 3 8 6 8 16 14 16 17 18 15 15 14 15 14 14 13 12 10 6 6 6 5 4 4 5 6 4 3 4 4 3 5 4 3 4 4 3 4 5 5
1 12 18 19 16 10 12 6 8 8 11 6 6 11 14 13 15 7 8 9 12 16 14 16 15 14 12 10 7 7 7 6 6 6 6 5 4 5 5 5 4 4 4 4 4 4 4 4 5
6 11 14 11 14 7 9 13 4 5 4 6 10 13 13 16 17 6 7 9 15 16 16 15 15 15 14 11 11 9 8 8 8 6 7 7 6 5 5 4 5 4 4 4 4 5 4 4 3
9 7 9 5 7 7 5 18 17 10 9 8 9 7 11 15 12 18 19 13 14 14 16 17 15 15 14 14 12 10 9 9 8 8 9 9 7 7 8 5 4 5 4 5 4 4 3 3 3
7 3 5 6 11 8 6 24 7 6 7 9 10 9 11 12 19 19 16 14 9 12 17 16 14 13 15 14 12 10 10 9 7 6 8 11 9 9 6 5 5 5 5 4 4 4 3 4 3
8 8 11 11 7 3 6 15 17 10 11 9 6 8 9 12 12 11 14 16 14 13 17 18 16 14 13 12 10 9 11 9 8 6 7 10 10 9 6 5 5 5 4 3 3 3 3 2 3
11 10 10 14 11 13 12 14 7 14 5 9 8 6 6 7 11 15 16 16 16 14 15 16 14 13 12 9 5 4 7 7 7 7 8 12 10 10 7 5 6 5 4 4 3 5 4 4 5
6 7 9 11 14 20 15 14 11 10 13 7 8 9 7 7 7 8 14 15 15 13 12 18 17 15 12 9 9 8 9 8 7 6 9 12 10 10 10 7 7 5 6 6 7 5 6 5 4
8 7 8 10 19 17 16 22 14 15 12 11 10 9 10 6 6 6 5 12 15 19 19 17 20 18 15 12 10 8 9 7 7 5 7 9 12 11 10 9 7 7 5 6 7 6 3 4 4
9 6 8 12 18 12 13 10 7 9 10 8 8 9 9 11 11 8 8 10 14 17 19 19 21 20 18 17 10 6 7 8 8 5 5 9 12 13 12 10 8 8 7 7 8 7 8 5 3
10 5 12 17 13 6 8 9 14 20 14 7 8 8 10 10 11 11 9 7 12 15 14 16 17 19 20 18 15 18 13 12 12 11 7 6 11 11 11 11 10 10 8 8 7 6 5 4 6
8 8 11 18 14 6 5 5 8 9 11 12 12 15 10 15 10 13 10 11 9 12 12 10 14 14 15 17 18 14 14 11 8 10 10 8 9 12 12 12 12 10 7 8 7 5 6 6 5
9 6 15 4 1 3 7 2 6 6 3 13 20 11 7 11 12 11 11 10 7 5 3 6 8 12 15 15 15 18 18 15 11 10 10 9 7 9 11 12 11 10 9 9 7 6 6 6 5
6 6 5 8 5 6 5 8 7 18 13 14 8 10 9 7 8 10 11 11 11 13 11 5 10 12 14 16 17 17 17 17 15 13 10 11 9 4 8 10 9 7 5 5 4 3 2 1 1
5 4 4 6 5 13 12 8 8 10 7 4 7 6 9 13 9 7 7 7 9 7 8 10 10 11 14 15 18 15 14 10 10 11 8 6 7 6 5 5 5 6 7 6 7 6 6 7 7
3 2 6 5 12 6 6 8 10 17 6 4 7 9 12 13 14 9 7 5 6 9 9 8 8 9 11 18 16 16 14 12 11 8 9 7 6 6 8 9 9 8 9 9 10 6 5 7 5
5 3 3 3 5 7 7 12 12 10 9 7 12 10 13 12 16 11 9 6 4 6 6 6 7 6 11 12 15 14 12 12 9 7 8 8 9 10 11 11 11 11 9 8 7 7 6 7 6
4 4 2 3 3 5 10 11 7 12 5 10 12 8 12 14 16 12 12 9 6 5 6 6 7 8 8 11 8 10 10 10 7 7 8 10 11 13 12 11 10 11 8 7 11 5 12 9 8
6 4 4 3 5 4 9 23 6 19 12 9 15 20 18 16 13 11 14 14 8 7 6 6 5 7 7 7 8 5 9 11 12 12 9 3 14 11 13 14 11 9 12 8 5 6 9 10 8
Wind_Direction
323 315 258 44 50 59 259 258 290 312 318 327 99 118 133 118 158 213 136 133 132 144 153 157 160 159 155 148 156 159 156 141 136 131 129 130 129 126 122 119 114 114 112 107 102 97 93 91 89
310 313 36 82 95 66 267 250 268 259 235 136 93 104 76 126 148 122 120 158 143 145 150 154 160 160 152 149 163 163 171 149 136 137 134 135 134 130 127 122 119 118 119 113 106 102 96 88 81
293 236 85 126 149 202 232 225 293 238 263 167 105 52 113 165 236 159 147 149 141 144 149 151 155 162 153 156 166 167 169 151 139 142 136 138 139 137 130 124 118 111 119 118 118 105 97 86 72
343 10 23 122 233 249 228 303 315 304 288 18 114 88 42 233 156 149 143 143 141 145 148 152 155 159 157 158 170 164 153 148 143 143 139 140 139 136 127 127 118 117 107 99 103 103 99 92 80
20 64 184 229 251 250 256 270 271 259 223 202 139 191 104 4 102 137 142 147 143 142 142 155 154 157 159 162 173 169 159 153 141 147 143 143 142 138 134 131 132 123 117 116 114 110 105 99 83
24 97 56 237 258 270 291 260 267 232 226 153 85 138 177 158 134 149 146 148 145 143 148 152 150 151 158 162 163 164 159 158 145 144 148 147 145 144 143 140 134 132 132 131 124 119 114 103 78
156 116 214 236 261 302 248 313 242 228 174 232 139 131 187 174 156 144 144 140 143 143 147 147 156 156 153 151 155 157 155 153 139 141 149 154 153 149 145 146 148 147 146 142 138 136 135 132 322
180 142 222 217 245 268 250 323 281 259 225 115 138 171 212 204 152 125 130 140 143 148 150 154 146 150 149 151 149 151 150 148 146 140 145 144 149 143 143 145 151 157 158 159 165 179 211 246 285
143 192 216 216 212 256 69 345 298 286 197 71 30 166 201 151 135 122 137 143 151 159 159 158 153 153 146 142 153 146 145 143 143 139 146 144 146 151 155 162 166 165 174 186 198 213 227 248 274
185 194 222 209 217 257 272 209 302 348 299 28 71 343 153 145 161 153 164 168 169 170 171 165 161 159 153 155 148 151 155 153 151 151 157 155 162 170 171 174 169 172 187 203 224 236 243 262 265
291 252 221 239 242 249 271 235 245 248 281 237 199 172 160 159 175 172 175 177 176 168 170 172 166 166 164 155 155 157 156 155 161 166 168 174 170 176 179 178 184 184 203 224 252 267 267 254 254
322 329 329 300 288 289 274 319 312 261 248 295 243 171 164 176 182 185 176 177 173 176 176 175 172 170 172 154 163 164 162 164 164 179 179 161 170 185 184 184 187 192 199 216 227 244 261 274 275
273 331 325 318 309 308 298 246 245 229 250 308 122 161 181 193 192 197 176 171 173 182 182 180 175 174 174 166 172 170 173 172 180 181 191 168 182 185 185 198 188 205 197 206 225 230 236 249 258
310 301 298 300 300 269 274 283 212 271 207 192 171 187 192 187 194 168 198 188 183 184 183 184 182 179 174 175 175 179 176 181 179 185 197 190 179 180 186 193 203 219 205 208 207 213 223 238 242
274 295 307 255 272 284 302 269 250 232 240 192 213 223 198 202 184 200 201 201 185 188 182 188 185 184 178 178 179 182 181 185 186 187 190 195 183 184 188 190 196 208 202 213 216 235 220 241 247
311 335 350 329 339 304 241 260 301 257 260 220 224 213 210 209 203 208 204 201 194 174 188 185 190 183 181 181 185 188 183 184 185 177 185 190 194 193 190 187 201 200 191 193 195 206 226 242 250
11 331 326 323 310 299 29 318 329 302 299 278 249 250 231 216 221 226 216 204 191 186 181 187 191 186 181 180 184 189 180 186 188 179 184 192 196 197 186 194 204 198 201 201 204 221 200 233 271
316 322 308 306 316 320 297 281 305 307 355 320 327 337 318 276 238 221 219 217 202 189 186 185 187 184 180 173 168 196 179 189 188 186 190 190 199 190 179 189 201 188 183 202 193 205 214 213 224
281 296 294 306 311 320 294 276 271 279 300 297 292 296 284 273 296 243 212 220 213 193 182 191 192 186 179 181 185 193 197 194 200 193 192 194 193 193 193 198 193 186 193 201 201 192 207 226 219
324 303 308 303 329 324 307 286 268 268 259 255 264 271 270 260 275 291 225 211 210 202 200 191 196 189 189 191 194 199 193 207 212 192 194 196 188 193 198 195 198 190 195 211 215 194 208 217 197
327 296 328 316 321 301 352 294 304 256 233 245 246 240 254 251 261 251 252 210 216 221 206 196 196 193 191 191 185 192 202 210 213 202 196 199 199 196 198 194 194 195 195 210 222 213 206 218 230
321 337 331 318 333 295 28 291 310 307 306 273 259 247 239 244 243 232 229 231 214 218 225 216 197 191 194 186 184 192 200 205 216 217 208 196 199 202 196 195 197 200 203 211 213 211 205 167 237
256 312 303 295 285 333 292 267 268 306 286 290 340 338 3 360 350 290 255 235 231 220 202 201 205 195 196 192 189 188 199 208 208 210 214 198 196 200 197 198 198 206 204 210 203 194 211 208 213
276 327 312 327 44 26 274 316 288 276 342 329 336 347 3 2 2 11 11 347 307 6 227 207 197 202 196 194 204 195 198 201 204 210 210 204 197 200 198 197 198 198 199 203 208 208 206 214 217
26 27 331 343 355 234 270 316 247 285 300 334 324 352 348 355 5 12 16 5 4 1 340 279 191 197 198 194 200 205 208 198 203 199 204 202 202 178 194 192 178 174 167 157 159 155 132 225 128
298 155 174 272 302 292 301 257 246 245 322 300 291 304 352 352 348 359 13 360 346 353 352 2 347 221 192 204 207 207 206 209 210 200 202 201 196 180 142 123 117 110 114 112 102 101 90 63 76
301 2 224 258 264 274 231 274 298 274 196 279 326 356 2 352 348 337 340 353 342 338 340 346 341 334 229 200 208 202 198 198 199 198 196 192 151 147 127 118 107 96 96 91 94 73 77 100 87
202 299 358 337 310 291 281 281 250 287 271 336 335 1 347 347 349 331 327 326 329 317 311 329 330 323 326 231 207 195 198 203 198 162 150 147 134 128 122 111 108 106 94 85 67 90 74 69 62
338 318 13 120 209 269 305 272 226 254 246 313 314 328 329 325 326 312 316 303 304 299 317 326 333 339 347 334 244 190 175 155 157 143 149 148 139 133 121 116 118 116 112 113 108 112 102 86 86
211 264 176 143 282 295 306 271 242 258 296 344 320 315 317 319 308 298 305 305 299 302 319 323 340 335 343 331 321 256 167 153 146 135 109 127 137 127 136 143 131 136 85 91 93 115 100 111 106